Vorticity
6 6 6 6 6 6 6 7 6 5 5 4 4 4 4 6 6 6 5 5 5 5 5 4 3 3 2 2 2 8 3 4 3 10 12 9 5 5 6 3 2 7 9 3 4 7 7
6 6 6 6 6 6 7 3 3 5 5 4 3 5 9 9 9 9 9 10 9 7 6 5 6 6 6 0 11 8 3 8 13 17 13 8 5 4 4 6 8 0 6 7 7 10 15
7 6 5 5 6 7 3 1 1 5 6 9 8 7 7 9 11 12 12 13 13 14 13 13 13 13 13 15 10 11 24 31 21 9 2 -0 -3 6 5 8 21 14 -3 6 18 14 -8
6 5 5 6 6 5 2 2 4 7 8 7 8 9 10 8 5 4 4 4 4 5 8 7 5 7 12 19 25 24 0 -11 -4 2 2 -3 6 10 9 5 6 9 8 10 24 3 7
6 5 6 6 6 4 4 4 7 7 9 10 7 5 4 4 5 6 6 7 8 7 9 6 11 15 19 2 -5 -8 1 2 6 8 8 8 10 8 8 5 8 23 3 10 -3 4 2
6 6 5 6 5 4 5 7 7 9 8 5 4 5 6 11 13 14 14 15 16 16 18 8 33 -5 0 -9 8 18 19 19 17 16 17 16 13 11 11 10 -6 26 22 3 -3 -4 -8
5 5 5 5 5 5 7 7 8 8 4 5 5 7 13 11 10 11 10 12 10 17 9 10 10 11 10 15 18 20 16 14 15 12 15 20 12 2 21 14 3 10 3 3 10 1 16
5 6 6 6 5 7 7 8 8 5 5 5 7 11 10 12 10 9 10 9 10 7 8 17 20 20 14 11 3 10 10 12 12 12 14 9 4 47 34 23 17 6 6 4 -5 13 -6
6 6 6 5 6 7 7 8 6 6 6 5 8 13 11 11 11 9 8 9 8 8 21 27 13 10 4 5 11 5 2 10 9 9 20 13 2 -4 -12 -12 -4 3 3 5 14 9 12
6 5 6 7 7 7 8 6 6 6 5 8 11 13 12 8 6 9 9 7 8 13 42 11 2 8 2 3 16 -10 17 9 3 5 8 23 19 12 9 3 12 7 7 16 19 17 9
6 7 7 7 7 8 7 6 6 5 9 9 11 11 11 7 8 8 8 10 10 16 17 7 10 4 -4 -6 -7 21 17 4 6 13 3 -14 -10 -21 -4 -2 17 18 15 11 14 9 5
6 6 8 6 8 7 6 6 4 8 10 10 12 11 10 9 10 11 10 10 16 29 12 3 -2 -1 -5 -8 30 18 11 8 9 17 12 6 22 14 7 3 2 6 5 9 8 12 29
6 8 6 7 8 6 4 5 7 9 11 12 12 10 11 11 13 10 9 14 36 14 2 10 -2 -9 5 23 28 16 1 5 11 21 11 -1 2 22 18 37 29 26 25 18 11 10 3
7 6 6 7 6 5 4 6 9 11 11 11 10 10 10 9 10 11 12 15 22 -4 1 1 -0 7 34 10 11 4 -12 0 12 4 13 25 37 -5 4 -27 11 -2 1 -16 11 6 4
8 7 7 6 5 4 5 8 10 10 10 10 10 11 9 11 10 12 14 30 6 5 -1 -3 16 27 21 11 -27 11 24 29 25 17 19 14 15 -8 -22 5 11 -9 -0 7 10 13 19
7 7 7 6 5 4 7 9 10 10 10 10 11 14 17 13 12 21 20 10 10 2 7 12 20 10 -1 -1 30 16 24 4 9 5 3 10 20 24 23 21 14 6 4 15 18 11 9
7 7 6 4 4 7 10 10 10 9 10 11 13 11 14 9 13 4 14 11 11 8 10 20 -1 -3 9 20 6 4 15 1 13 8 -12 3 29 -12 -5 17 13 10 10 -4 -6 11 3
7 6 5 5 8 9 9 8 9 10 11 14 12 25 7 7 27 6 8 12 8 8 12 17 17 13 16 4 21 25 -0 3 -11 6 15 27 10 1 -7 43 39 37 29 32 17 -12 16
7 6 5 8 9 8 9 9 10 11 12 12 13 24 10 32 7 14 8 6 12 5 14 9 10 5 5 11 24 9 11 7 -10 6 -9 11 3 16 17 6 -4 21 -21 -18 -3 6 14
5 7 9 8 7 9 9 10 11 10 10 11 17 18 6 0 15 8 7 18 5 10 10 7 6 19 9 4 19 -7 -12 15 3 -10 3 28 29 3 -35 -22 -26 -4 -6 -6 8 17 -13
8 8 8 8 8 9 10 10 9 11 12 13 11 5 4 -5 6 9 12 16 6 5 5 7 17 2 -1 6 6 53 -12 -6 10 36 41 -16 15 11 5 6 6 7 5 6 10 13 16
7 8 6 7 8 9 9 10 12 13 12 12 11 11 9 13 10 9 7 7 15 5 2 24 -6 1 11 15 -2 0 5 14 12 15 12 -15 16 -2 16 72 40 17 28 34 40 50 48
7 5 5 7 8 9 10 11 12 12 11 9 10 8 9 8 8 14 11 13 9 2 14 -6 12 10 5 15 -0 6 16 20 32 34 24 18 26 -4 12 -14 14 52 11 22 2 -0 24
3 5 5 7 9 9 10 12 11 10 9 9 7 8 10 5 11 32 21 -1 -0 21 5 11 31 24 13 10 17 13 52 10 0 38 40 34 24 38 -1 35 20 17 -12 -8 6 -26 -1
2 3 6 9 9 10 11 11 9 8 8 7 8 10 8 9 29 2 2 21 -6 12 18 34 24 17 17 9 8 35 13 14 0 4 13 -19 24 22 8 12 0 13 16 -9 4 10 32
3 5 8 9 11 10 10 9 8 8 7 9 8 8 10 10 -5 -12 34 -22 6 7 18 1 13 20 22 19 24 9 9 -2 -7 14 -4 -2 18 12 16 11 12 -29 -7 14 18 25 29
5 5 9 10 10 10 10 8 8 7 8 9 10 10 12 16 -2 25 -2 12 19 17 -9 6 8 21 -4 13 25 12 -4 7 14 -1 -22 13 25 9 7 31 7 18 14 -7 37 -34 -15
4 8 10 10 9 10 9 8 7 8 9 14 9 11 11 9 26 6 17 12 8 9 9 9 14 -4 31 7 16 17 8 22 9 -1 25 14 27 12 20 12 28 -24 -8 21 3 6 6
7 11 10 10 10 9 8 8 8 10 10 11 14 10 8 8 9 39 8 -30 8 8 18 10 13 15 13 5 -8 3 8 18 7 2 1 18 -11 0 13 -19 3 -2 1 1 3 5 7
Height
3171 3169 3168 3167 3165 3162 3161 3158 3156 3154 3150 3148 3145 3143 3139 3137 3134 3131 3128 3126 3122 3120 3117 3115 3113 3111 3110 3109 3107 3104 3101 3100 3098 3096 3095 3094 3092 3091 3089 3088 3086 3083 3082 3080 3079 3077 3076
3171 3169 3167 3165 3164 3162 3160 3157 3155 3152 3149 3146 3144 3140 3137 3133 3131 3128 3125 3123 3118 3115 3113 3111 3109 3107 3105 3103 3100 3098 3096 3094 3092 3090 3090 3090 3089 3087 3084 3083 3081 3079 3077 3075 3073 3072 3070
3170 3168 3167 3164 3163 3161 3158 3156 3154 3150 3147 3143 3140 3136 3133 3129 3127 3123 3121 3117 3113 3112 3108 3106 3104 3101 3099 3097 3094 3093 3090 3088 3087 3086 3086 3085 3084 3082 3079 3078 3074 3072 3070 3069 3069 3067 3066
3170 3168 3166 3164 3162 3160 3157 3154 3151 3148 3144 3140 3137 3133 3129 3127 3123 3120 3117 3114 3111 3107 3103 3101 3097 3095 3093 3091 3090 3088 3087 3086 3084 3083 3081 3079 3078 3075 3074 3073 3069 3067 3065 3064 3063 3062 3061
3169 3167 3165 3163 3161 3158 3155 3152 3149 3145 3141 3138 3134 3130 3126 3122 3119 3115 3112 3109 3105 3103 3099 3095 3092 3089 3088 3085 3084 3083 3081 3079 3078 3076 3074 3072 3072 3068 3066 3066 3064 3062 3058 3058 3059 3058 3057
3168 3166 3164 3162 3159 3156 3153 3150 3146 3143 3139 3135 3130 3126 3123 3118 3114 3109 3106 3103 3101 3098 3094 3089 3086 3088 3084 3082 3080 3077 3075 3072 3069 3068 3069 3067 3064 3061 3060 3060 3057 3056 3053 3053 3052 3054 3051
3166 3164 3162 3160 3157 3154 3151 3148 3144 3140 3136 3132 3128 3123 3118 3113 3110 3106 3102 3098 3098 3096 3091 3087 3083 3079 3078 3074 3074 3071 3068 3066 3065 3063 3063 3060 3056 3054 3056 3057 3055 3051 3051 3048 3047 3048 3045
3164 3162 3160 3158 3155 3152 3148 3145 3141 3137 3134 3129 3125 3120 3114 3110 3105 3101 3097 3094 3091 3090 3086 3081 3077 3074 3073 3071 3070 3067 3066 3065 3061 3059 3058 3055 3050 3051 3049 3051 3050 3047 3046 3043 3041 3042 3040
3162 3160 3158 3155 3152 3149 3145 3142 3139 3135 3130 3126 3121 3116 3111 3106 3103 3099 3094 3091 3086 3082 3081 3076 3074 3072 3070 3069 3065 3064 3063 3058 3057 3055 3054 3051 3049 3047 3048 3046 3045 3042 3040 3039 3038 3036 3034
3160 3158 3156 3153 3150 3147 3143 3140 3136 3132 3126 3121 3116 3112 3109 3104 3102 3095 3092 3087 3084 3080 3074 3075 3071 3068 3068 3066 3065 3064 3059 3059 3055 3052 3049 3046 3046 3042 3041 3040 3042 3036 3035 3035 3033 3032 3029
3158 3156 3153 3150 3146 3143 3140 3136 3132 3127 3122 3117 3112 3108 3104 3099 3096 3092 3089 3084 3081 3079 3078 3073 3069 3066 3065 3065 3061 3057 3055 3051 3049 3047 3047 3040 3040 3040 3036 3035 3035 3031 3030 3029 3028 3027 3025
3156 3153 3150 3147 3143 3140 3137 3132 3128 3124 3119 3113 3108 3104 3100 3096 3092 3089 3086 3082 3080 3078 3070 3068 3065 3064 3061 3060 3056 3052 3052 3049 3046 3040 3038 3034 3035 3034 3031 3029 3028 3028 3025 3024 3023 3022 3019
3153 3150 3147 3143 3141 3137 3133 3128 3124 3119 3115 3109 3105 3100 3097 3093 3091 3087 3083 3079 3078 3071 3070 3066 3063 3061 3056 3052 3051 3049 3046 3044 3043 3039 3032 3030 3030 3029 3027 3023 3022 3022 3021 3020 3020 3017 3011
3149 3146 3143 3140 3137 3134 3129 3125 3119 3115 3111 3106 3102 3097 3093 3089 3086 3082 3079 3078 3074 3069 3065 3063 3060 3057 3054 3050 3050 3049 3046 3042 3039 3036 3032 3027 3022 3025 3025 3022 3021 3019 3020 3019 3016 3013 3008
3146 3144 3140 3137 3133 3129 3125 3120 3116 3110 3107 3103 3098 3094 3089 3085 3082 3078 3076 3073 3071 3066 3064 3060 3056 3052 3051 3049 3047 3043 3040 3036 3035 3033 3034 3028 3019 3020 3022 3019 3020 3017 3016 3015 3011 3009 3008
3144 3141 3137 3133 3129 3125 3121 3116 3112 3107 3101 3097 3094 3090 3085 3082 3078 3075 3072 3070 3067 3066 3061 3057 3055 3053 3049 3045 3043 3040 3037 3034 3032 3032 3028 3028 3018 3014 3014 3015 3015 3013 3013 3011 3008 3006 3001
3140 3137 3134 3130 3126 3121 3116 3112 3108 3103 3098 3093 3089 3085 3081 3077 3074 3071 3070 3067 3064 3061 3059 3057 3053 3049 3046 3042 3039 3039 3034 3031 3029 3029 3026 3025 3021 3010 3011 3010 3009 3009 3007 3008 3006 3006 3000
3137 3133 3130 3126 3122 3117 3112 3106 3101 3098 3095 3090 3085 3083 3078 3073 3073 3068 3065 3064 3062 3058 3056 3053 3049 3045 3043 3042 3039 3039 3035 3030 3026 3025 3023 3021 3018 3007 3005 3002 3001 3002 3003 3003 3004 3002 2999
3133 3130 3127 3123 3118 3114 3109 3103 3097 3091 3086 3083 3080 3077 3074 3071 3068 3064 3061 3059 3057 3054 3052 3049 3048 3044 3040 3040 3036 3031 3031 3027 3025 3024 3022 3018 3016 3010 3001 3001 2999 2999 3000 3001 3003 3001 2997
3129 3126 3123 3119 3115 3110 3105 3100 3094 3089 3084 3081 3077 3073 3069 3066 3064 3062 3059 3056 3054 3051 3048 3046 3043 3040 3036 3035 3037 3030 3025 3024 3022 3021 3020 3015 3010 3012 3007 3004 3002 2998 2995 3000 3001 3001 2996
3126 3123 3120 3115 3111 3106 3101 3097 3092 3087 3083 3079 3074 3071 3068 3066 3063 3059 3055 3053 3049 3047 3045 3042 3039 3038 3037 3032 3027 3025 3023 3019 3016 3016 3012 3011 3006 3005 3002 3000 2998 2995 2990 2989 2992 2990 2989
3123 3120 3116 3112 3108 3103 3098 3093 3089 3084 3080 3078 3074 3071 3066 3063 3060 3057 3053 3048 3045 3042 3040 3038 3036 3033 3030 3028 3025 3019 3017 3013 3008 3005 3006 3006 3000 2999 2994 2993 2991 2987 2986 2983 2982 2981 2980
3120 3117 3112 3108 3104 3099 3094 3089 3085 3081 3077 3073 3070 3068 3064 3061 3056 3053 3049 3045 3042 3039 3038 3035 3031 3027 3024 3022 3018 3015 3012 3006 3004 3000 2998 2999 2997 2995 2993 2991 2987 2985 2983 2981 2980 2978 2977
3117 3113 3109 3104 3099 3094 3090 3086 3083 3078 3073 3070 3068 3065 3061 3057 3053 3049 3047 3045 3041 3039 3034 3030 3026 3022 3019 3016 3012 3010 3006 3003 3001 2995 2993 2994 2994 2993 2991 2989 2987 2983 2981 2980 2980 2979 2977
3113 3109 3105 3100 3095 3090 3086 3082 3078 3074 3070 3066 3062 3058 3053 3049 3047 3046 3044 3040 3038 3035 3031 3027 3026 3025 3021 3015 3008 3004 3002 3001 2999 2996 2994 2994 2994 2993 2990 2989 2985 2982 2979 2978 2977 2972 2974
3110 3106 3102 3097 3092 3088 3083 3079 3075 3073 3068 3061 3057 3053 3050 3046 3043 3041 3037 3035 3031 3027 3025 3023 3019 3018 3016 3013 3008 3005 3003 3002 3000 2997 2997 2996 2994 2994 2989 2988 2984 2982 2980 2976 2974 2969 2969
3106 3103 3098 3094 3089 3085 3081 3077 3073 3069 3065 3059 3053 3050 3046 3042 3040 3038 3035 3031 3027 3023 3021 3019 3014 3012 3011 3011 3007 3005 3003 3002 3000 2998 2994 2991 2989 2987 2986 2984 2979 2978 2975 2971 2970 2970 2962
3102 3099 3095 3090 3085 3083 3079 3075 3070 3065 3061 3057 3051 3046 3043 3039 3037 3034 3030 3027 3025 3021 3018 3016 3014 3010 3008 3008 3006 3004 3001 3000 2998 2997 2994 2992 2989 2986 2984 2980 2977 2972 2971 2971 2964 2955 2951
3098 3094 3090 3086 3083 3079 3076 3071 3067 3061 3056 3053 3050 3044 3040 3037 3036 3031 3028 3025 3022 3018 3014 3012 3011 3008 3007 3006 3005 3003 3001 2999 2996 2993 2992 2990 2989 2986 2984 2977 2973 2969 2967 2962 2956 2947 2941